Starlink 30245

operational
NORAD ID: 57612 Int'l Des: 2023-119 Owner: SPXS Country: US Constellation: starlink
LEOCIRCULAR

关于 Starlink 30245

正在加载描述...

实时位置

正在加载3D地球...

即将过境

高度历史

Altitude vs Time

uPlot chart will show altitude changes over time

两行轨道根数

1 57612U 23119L 25352.49350642 -.00000455 00000-0 -18645-4 0 9991
2 57612 43.0027 162.6546 0000967 267.7929 92.2803 15.02541641130875
Epoch: Dec 18, 2025 • Age: 10 hours

当前状态

高度 559.5 km
速度 7.58 km/s
星下点 -4.52°S, 107.1°E
发射日期 Aug 11, 2023
运行时间 2.3 years
类型 internet

技术详情

分类 Payload
质量 730.00 kg
干质量 700.00 kg
总质量 730.00 kg
长度 0.30 m
直径 4.10 m
跨度 29.00 m
形状 Box + pan
制造商 SPXS
平台类型 Starlink V2M
阶段状态 In Orbit
所有者/国家 SPXS/US

大型星座

Loading constellations...